Temp
17 18 19 20 20 20 20 20 20 19 19 18 17 16 15 15 15 15 15 15 15 15 15 15 14 13 13 11 11 11 10 10 9 9 9 12 12 11 11 10 10 10 9
15 15 17 18 19 19 19 19 18 17 17 17 16 16 15 14 14 14 14 14 14 14 14 13 12 11 11 10 10 9 8 8 7 7 5 5 7 10 10 8 9 8 8
15 14 14 16 17 17 18 17 17 17 17 17 16 15 14 13 13 13 13 13 13 12 12 11 11 10 10 9 8 8 7 6 7 7 6 4 3 4 7 7 7 7 6
16 13 12 13 15 16 17 17 17 17 16 16 16 15 13 12 12 12 12 11 11 11 11 10 10 9 8 8 8 7 7 6 6 6 6 6 5 3 2 5 5 5 4
15 14 13 13 15 15 16 16 16 16 16 16 16 15 13 12 12 11 11 11 10 10 10 9 9 8 8 7 7 6 6 6 5 5 4 4 4 5 1 2 3 3 4
14 12 12 13 13 14 15 15 15 15 15 15 15 14 13 12 11 11 11 10 10 9 9 8 8 7 7 6 6 6 5 5 5 4 4 4 3 2 2 2 2 2 3
13 12 12 11 11 12 13 14 14 13 14 14 14 13 13 12 11 11 10 10 9 8 8 7 7 7 6 6 5 5 5 4 4 3 3 3 2 2 2 1 1 1 2
13 13 12 11 11 11 12 12 13 12 13 13 12 12 12 12 11 10 10 9 8 7 7 7 6 6 6 5 5 4 4 3 3 3 2 2 2 1 1 0 0 -0 0
13 12 11 11 11 11 11 12 12 12 12 12 12 11 11 11 10 10 9 8 7 7 6 6 6 5 5 4 4 3 3 3 2 2 2 1 0 -0 -1 -1 -0 -1 -1
12 11 11 10 10 11 11 12 12 11 11 11 11 10 10 10 9 8 8 7 7 6 6 6 5 5 4 4 3 3 3 2 2 1 1 0 -1 -1 -1 -1 -1 -1 -1
12 12 11 10 10 10 11 11 11 10 10 10 10 9 9 8 8 8 7 6 6 6 5 5 4 4 3 3 3 2 2 2 1 1 0 -0 -1 -2 -2 -2 -2 -2 -1
12 11 10 10 9 9 10 10 10 10 10 9 9 9 8 8 7 7 6 6 6 5 5 4 4 3 3 2 2 2 2 1 1 1 -0 -1 -1 -2 -2 -2 -2 -2 -2
12 11 10 9 9 9 9 9 9 9 9 9 8 8 7 7 6 6 6 5 5 4 4 3 3 2 2 2 2 1 1 1 1 0 -0 -1 -1 -2 -2 -2 -2 -2 -1
12 11 10 9 9 8 8 9 9 9 8 8 8 7 7 6 6 5 5 5 4 4 3 3 2 2 1 1 1 1 1 1 1 0 -0 -1 -1 -2 -2 -2 -1 -2 -2
11 11 10 9 8 8 8 8 8 8 8 7 7 6 6 6 5 5 4 4 4 3 2 2 2 1 1 0 1 1 1 0 0 0 -0 -1 -2 -1 -1 -1 -2 -2 -3
12 11 10 9 8 7 7 7 8 8 8 7 6 6 5 5 4 4 4 3 3 2 2 1 1 1 0 -0 1 1 0 -0 -1 -1 -1 -2 -2 -2 -2 -2 -2 -2 -1
12 11 10 9 8 7 7 7 7 7 7 6 5 5 5 4 4 4 3 3 2 2 1 1 0 0 -0 -0 -0 -0 -0 -1 -2 -2 -2 -3 -3 -3 -4 -3 -2 -2 -3
12 11 10 9 8 7 7 7 7 7 6 5 5 4 4 4 3 3 2 2 2 1 1 0 0 -0 -1 -1 -1 -1 -2 -2 -2 -2 -3 -3 -4 -3 -3 -2 -3 -4 -4
12 11 9 7 6 6 7 7 6 6 5 5 4 4 4 3 3 2 2 1 1 1 0 -0 -0 -1 -1 -2 -2 -2 -2 -3 -3 -3 -3 -3 -3 -3 -2 -3 -4 -4 -4
8 7 7 6 6 6 7 6 5 5 5 4 4 4 3 3 2 2 1 1 0 0 -0 -0 -1 -1 -2 -2 -2 -2 -2 -3 -3 -3 -4 -4 -3 -3 -3 -3 -3 -5 -5
6 6 6 5 5 6 6 5 5 5 4 4 3 3 3 2 2 1 1 0 -0 -0 -1 -1 -1 -2 -2 -3 -3 -2 -2 -2 -3 -3 -3 -4 -4 -3 -3 -3 -5 -5 -4
5 5 5 4 5 6 6 4 4 4 4 3 3 3 2 2 1 1 0 -0 -1 -1 -2 -2 -2 -3 -3 -3 -3 -2 -2 -2 -2 -3 -4 -4 -4 -4 -4 -5 -5 -4 -5
5 5 4 4 5 6 6 4 3 3 3 3 2 2 2 1 0 -0 -1 -1 -2 -2 -2 -3 -3 -3 -3 -3 -3 -3 -2 -3 -3 -4 -4 -4 -5 -5 -6 -6 -5 -5 -7
4 4 4 3 3 5 5 4 3 3 3 2 2 1 1 0 -0 -1 -1 -2 -2 -3 -3 -3 -3 -4 -4 -4 -3 -3 -3 -4 -5 -5 -5 -6 -6 -6 -6 -6 -6 -7 -7
3 4 3 2 3 4 3 3 3 3 2 2 1 0 -0 -1 -1 -1 -2 -3 -3 -3 -3 -3 -3 -4 -4 -4 -3 -3 -3 -4 -4 -4 -6 -7 -7 -7 -7 -7 -7 -7 -7
3 2 3 3 2 3 2 2 2 2 2 1 0 -0 -1 -1 -2 -2 -2 -3 -3 -3 -3 -3 -4 -4 -4 -4 -4 -3 -4 -4 -5 -6 -7 -7 -7 -8 -7 -7 -7 -7 -7
Height
728 731 732 732 734 735 735 739 742 746 747 751 756 762 766 771 773 777 779 783 784 785 785 785 785 785 784 783 782 780 779 777 774 769 764 759 757 756 755 754 753 752 750
730 731 730 730 732 733 734 738 740 744 747 751 755 760 768 773 774 777 781 784 785 786 786 787 786 786 785 784 782 781 780 779 777 774 769 765 759 755 754 753 752 750 748
726 729 728 729 730 733 735 737 740 745 750 753 756 763 769 773 776 779 783 785 786 787 787 788 787 787 787 785 784 783 781 779 778 777 775 773 772 762 752 751 749 748 745
719 723 727 730 731 734 734 737 740 746 752 754 758 762 767 771 777 780 784 786 788 788 789 789 788 788 787 786 785 783 782 780 778 777 777 776 774 769 757 748 746 745 743
711 719 724 727 731 734 734 738 742 747 752 756 759 764 768 773 778 782 784 786 788 789 790 789 789 788 787 787 785 783 781 780 779 777 775 772 770 767 764 751 745 742 739
713 719 724 728 732 736 737 740 744 749 753 758 763 766 769 774 778 782 784 787 789 789 790 790 789 788 787 787 785 783 781 779 778 775 774 771 769 765 762 753 745 740 735
709 717 723 729 732 737 738 741 745 751 756 760 766 769 772 776 779 783 785 787 788 789 790 789 789 788 787 786 784 782 780 777 775 773 771 769 767 764 760 753 742 734 730
706 715 722 727 732 737 738 741 747 753 758 762 767 772 775 778 780 783 785 787 788 789 790 790 789 788 786 785 782 780 777 775 773 771 768 766 763 760 756 752 746 730 724
704 714 723 727 732 737 740 743 749 755 759 763 768 774 777 779 781 783 786 787 788 789 789 789 788 787 785 783 781 778 775 772 770 767 765 762 759 755 751 747 744 738 722
707 716 723 728 734 739 742 747 752 757 762 766 770 774 778 780 783 785 786 788 789 789 788 787 786 785 783 781 778 776 773 770 767 765 762 759 755 751 747 743 738 735 728
706 715 723 730 736 740 745 749 754 759 764 768 772 775 779 782 784 785 787 788 788 788 787 786 785 783 781 779 776 773 770 767 764 761 758 755 752 747 742 737 733 728 724
707 715 723 730 736 741 746 750 756 761 766 770 773 777 780 783 784 786 787 788 788 787 786 785 783 781 779 776 773 769 767 764 760 757 754 750 746 741 737 732 727 722 717
709 717 724 730 736 741 747 752 758 763 768 771 774 778 781 783 784 786 787 787 787 786 785 783 782 779 776 773 771 768 764 760 757 753 749 745 741 736 732 727 722 716 710
707 716 724 730 735 741 747 753 759 764 769 773 776 779 782 783 784 786 787 787 786 785 784 782 780 777 774 771 767 764 759 756 752 749 745 740 736 732 726 721 716 710 703
708 714 720 728 735 741 748 755 760 765 770 773 777 780 782 783 786 787 786 785 785 784 782 780 777 774 771 767 763 759 755 751 747 743 740 736 732 728 723 716 710 704 697
704 711 718 726 734 741 748 755 760 766 770 774 777 780 782 784 785 785 785 785 783 782 780 777 775 772 768 764 761 757 752 747 744 739 735 731 726 721 717 712 705 698 689
699 708 715 724 732 740 746 753 760 766 770 774 778 780 782 784 784 784 784 783 782 780 778 776 773 769 765 762 758 754 749 745 741 736 731 726 722 716 709 701 695 688 682
698 707 715 725 733 740 748 754 761 766 771 775 778 781 782 783 784 784 783 782 780 778 776 774 770 766 763 759 754 750 746 741 736 732 728 723 716 710 702 693 686 679 674
698 706 715 724 733 741 748 755 762 767 771 775 778 780 782 782 783 782 781 780 778 776 774 770 767 763 759 755 752 747 742 736 731 727 723 719 712 705 697 688 681 674 667
700 708 718 726 734 743 749 755 762 767 771 775 778 780 781 781 781 781 780 778 777 774 771 767 764 760 756 753 749 745 738 732 726 721 717 713 707 698 691 684 677 669 661
704 713 721 728 736 744 750 757 762 767 771 775 778 779 780 780 780 779 778 776 774 770 767 763 760 757 754 750 746 742 737 730 723 718 711 707 701 694 687 681 675 667 658
711 717 724 733 740 747 752 758 763 768 772 775 777 778 779 779 779 777 776 774 771 767 763 759 756 754 750 747 743 738 733 728 721 715 708 702 696 690 683 677 671 663 656
716 723 728 737 746 750 754 759 765 769 772 775 777 778 778 778 777 776 774 770 767 763 760 757 754 750 747 743 739 734 729 724 718 712 705 699 692 686 680 673 667 660 653
723 729 735 743 749 754 758 761 766 769 772 774 776 776 776 776 775 774 771 768 765 762 759 755 751 747 744 740 734 729 723 719 713 707 700 695 689 683 677 669 662 657 651
729 733 738 744 750 755 760 764 767 770 772 774 775 775 775 774 773 771 769 766 764 762 758 754 750 745 740 737 732 726 720 714 709 702 697 691 685 679 672 666 660 654 647
732 737 743 747 753 757 761 765 768 770 772 773 774 774 774 772 770 768 766 765 762 759 756 753 749 744 740 734 729 723 718 712 707 701 696 690 684 678 671 664 656 650 644
Wind_Speed
5 12 13 12 11 12 16 14 17 23 29 33 34 32 27 27 24 20 16 14 13 11 9 9 8 9 11 12 13 14 16 12 22 11 22 10 4 11 12 18 18 23 18
7 7 12 12 12 14 14 15 22 27 30 32 31 32 30 25 25 22 19 16 13 11 10 10 10 10 10 11 13 15 14 8 16 9 5 4 7 6 36 9 24 15 29
13 8 8 12 15 17 19 22 26 27 29 31 32 31 29 28 26 22 19 16 12 11 11 10 10 10 11 12 12 13 15 12 10 12 7 4 3 10 4 22 10 33 18
8 7 7 11 20 21 24 26 29 30 30 31 31 32 28 26 23 21 18 15 12 10 9 9 9 9 10 10 12 12 15 14 14 12 8 6 11 3 5 7 29 15 29
17 15 12 18 24 25 28 30 33 31 28 27 27 30 29 27 23 19 16 13 10 9 9 8 8 9 10 10 11 13 14 13 13 13 13 12 15 11 5 10 10 25 26
12 11 14 21 24 26 30 31 31 28 28 28 28 30 30 27 23 18 14 10 7 8 8 8 8 8 9 11 12 13 13 14 12 14 16 15 6 9 8 9 11 13 22
18 16 15 14 21 25 31 32 33 30 30 29 28 27 26 23 21 16 12 8 6 7 7 7 8 9 10 10 12 14 15 15 16 16 18 15 16 20 19 19 16 10 24
18 17 15 18 21 24 29 33 34 33 32 30 28 25 22 20 17 13 10 7 6 6 5 6 7 9 10 12 14 16 17 17 16 19 16 17 23 24 22 19 18 14 10
19 17 14 19 21 24 29 35 35 33 32 29 27 23 20 18 16 12 8 6 5 4 5 6 9 11 13 15 16 17 18 18 19 17 17 23 25 24 23 23 21 14 13
16 15 13 18 21 28 32 34 33 32 30 28 25 22 19 16 13 10 8 6 4 4 6 8 11 14 15 17 17 18 20 19 19 18 23 22 25 25 23 23 23 21 20
17 15 13 19 23 29 31 32 31 30 28 26 24 21 18 14 11 9 7 5 4 5 8 11 13 15 17 19 19 20 21 19 18 23 19 23 24 22 24 24 23 23 23
16 14 13 20 22 25 29 31 30 29 26 24 22 19 16 12 10 7 5 4 5 7 10 12 15 17 19 20 21 21 19 23 25 23 20 23 23 27 25 24 25 26 28
16 14 13 12 20 22 26 30 29 28 25 23 21 17 14 10 8 6 4 4 6 9 11 14 16 18 20 21 21 19 24 24 23 21 22 26 28 26 26 27 26 27 26
17 15 13 13 20 22 25 29 29 27 25 21 18 15 11 8 6 4 4 6 8 11 13 14 16 18 20 22 19 24 25 25 24 24 26 27 27 27 28 28 28 26 31
16 16 15 13 18 21 24 28 29 26 23 20 16 13 10 7 5 3 5 7 9 12 13 15 18 19 22 20 23 24 26 27 29 28 27 26 27 29 30 31 32 34 30
17 16 16 15 18 22 24 28 29 26 22 18 15 11 8 6 4 4 6 9 11 13 14 17 19 21 22 22 22 24 27 28 25 26 28 29 26 27 32 34 34 35 35
18 17 17 16 21 25 30 29 30 25 21 17 13 10 7 5 3 5 7 10 13 14 16 19 20 21 23 21 23 25 27 26 28 28 28 29 25 30 32 34 35 36 33
16 15 13 19 23 27 29 32 28 24 20 16 12 8 6 4 3 6 8 11 14 16 17 19 20 21 23 22 24 25 25 28 27 26 27 26 29 30 35 36 36 24 27
13 15 22 26 29 31 34 32 27 23 19 15 11 7 4 2 4 7 10 12 15 17 18 20 21 22 23 22 23 25 27 25 26 26 25 26 30 34 37 35 31 29 30
20 23 25 28 30 30 34 31 26 22 17 14 10 6 3 2 6 8 11 13 14 17 18 21 22 22 22 22 23 24 25 25 27 25 24 24 33 36 34 36 31 27 33
23 27 27 26 28 33 32 27 24 19 15 12 9 5 2 4 6 8 11 13 15 18 21 22 23 22 21 23 21 23 25 26 26 26 26 30 32 35 37 34 27 30 35
21 25 26 24 29 31 29 26 21 17 14 11 8 4 2 4 6 10 12 14 16 19 22 24 23 20 22 22 22 24 25 27 27 26 29 29 34 35 31 29 29 32 31
20 22 27 26 26 25 26 25 19 16 14 10 6 3 2 4 8 10 12 17 19 20 21 17 18 20 21 22 24 23 26 27 29 27 31 31 32 28 27 27 29 29 26
18 24 25 21 22 21 20 21 18 15 12 9 5 2 3 6 8 9 13 16 17 18 17 17 18 20 20 22 24 25 27 24 25 26 24 27 26 26 26 26 27 26 26
19 23 22 22 22 21 20 17 15 13 10 6 3 2 4 7 10 12 14 14 15 16 19 20 21 21 21 23 28 30 30 30 30 31 24 24 24 25 25 26 27 27 27
21 22 23 24 23 21 19 15 12 10 7 5 1 3 6 8 10 14 18 17 13 15 16 17 19 23 22 26 28 28 29 31 28 23 21 22 22 22 25 26 27 28 28
Wind_Direction
179 189 177 166 164 153 155 161 158 159 155 149 139 133 123 126 119 116 115 118 113 102 88 71 53 35 26 22 14 9 6 3 1 347 339 330 320 307 336 343 349 340 338
174 198 171 165 171 158 151 150 156 155 154 150 142 137 130 122 119 117 113 109 102 90 77 63 50 38 30 26 22 19 13 4 7 340 319 340 324 313 324 322 332 334 330
183 187 163 156 154 153 147 143 150 151 148 143 136 130 126 120 116 114 108 97 90 79 68 59 47 35 27 28 23 20 16 3 2 23 43 348 319 326 282 324 328 327 331
172 154 149 148 148 148 148 146 146 147 146 146 144 143 137 126 123 120 112 101 84 72 60 51 41 33 28 24 20 13 10 5 359 2 340 329 304 302 317 325 316 319 316
166 164 157 149 145 145 145 148 146 147 148 149 148 142 131 128 130 126 116 99 81 67 53 42 32 29 23 18 11 5 5 4 350 348 339 330 315 287 265 301 312 310 311
149 136 129 136 140 143 139 141 142 139 142 143 143 140 136 137 134 132 121 107 80 62 49 36 30 25 19 10 4 358 356 353 348 341 335 330 318 311 308 301 302 296 302
146 145 142 140 136 138 141 141 140 138 141 141 141 140 137 138 135 134 125 115 89 56 38 28 23 17 11 1 353 350 349 348 342 341 337 331 327 326 313 303 305 301 304
149 151 147 144 138 138 134 137 139 139 140 139 137 138 139 134 128 125 117 101 83 54 38 26 17 9 358 351 348 346 346 343 342 336 335 333 330 328 317 304 304 307 301
149 148 145 142 139 138 135 138 140 140 140 138 136 135 134 130 124 119 112 97 83 49 24 9 4 358 353 350 345 344 343 339 336 334 332 331 330 325 316 309 303 299 308
141 145 145 139 139 141 143 144 144 143 140 139 138 134 131 127 123 118 108 93 73 34 8 359 355 351 348 346 343 340 338 333 330 329 328 330 331 323 316 309 301 293 288
150 148 142 140 140 142 145 146 144 142 141 141 138 135 131 128 123 110 98 82 48 17 2 355 350 346 343 342 338 336 333 325 324 325 323 326 331 320 314 310 301 295 291
146 146 144 143 143 142 146 147 148 147 145 142 139 135 133 131 120 105 87 59 28 7 358 352 347 343 341 339 336 333 331 326 322 320 316 322 325 325 318 308 301 295 292
145 146 144 148 147 145 147 150 153 149 148 146 142 137 135 129 113 97 70 32 10 2 356 349 345 341 339 336 334 331 326 323 320 316 313 321 323 317 310 303 299 298 298
153 152 151 152 152 148 147 152 154 153 151 148 143 139 133 122 106 88 52 20 6 357 350 347 342 340 338 337 334 329 327 326 322 320 318 316 317 312 308 309 306 307 304
158 160 158 153 147 144 147 153 155 154 154 148 143 136 129 115 108 77 29 9 360 353 346 345 343 341 341 337 331 330 328 327 324 322 323 319 314 312 312 312 315 309 303
165 163 157 151 152 149 146 151 156 156 156 149 141 136 129 125 97 41 10 359 354 348 347 349 346 341 342 338 333 331 327 327 330 329 325 321 315 313 313 312 310 307 305
166 164 162 156 152 151 152 152 157 156 154 147 142 139 135 121 70 21 359 353 351 349 348 346 344 343 344 340 336 333 328 330 330 326 322 317 315 314 310 306 307 301 303
162 160 152 145 144 145 149 155 155 155 150 145 143 141 132 100 37 2 356 351 347 346 343 342 345 342 343 341 338 332 328 327 322 319 318 316 314 313 314 312 307 321 322
150 145 142 136 139 145 152 154 152 151 149 147 145 141 125 73 7 356 353 348 342 339 339 342 342 341 341 341 335 333 328 319 316 315 312 317 315 315 316 324 324 320 315
127 127 129 132 134 144 155 150 150 151 150 151 144 139 125 29 2 351 347 344 337 333 337 338 342 342 338 334 332 331 325 320 316 316 317 317 320 320 324 327 324 322 312
120 123 128 132 138 150 154 145 150 149 146 147 146 139 93 17 352 344 343 339 337 336 340 342 344 344 341 333 328 329 328 321 321 322 323 321 322 325 326 323 326 310 319
116 122 120 124 143 153 152 145 145 145 147 148 143 125 62 9 353 342 340 343 343 341 343 344 340 339 334 332 327 328 327 327 327 324 319 316 324 325 323 323 319 323 327
113 119 122 125 144 151 152 145 145 150 150 148 134 107 42 9 349 346 345 345 346 347 344 336 330 329 330 331 328 326 327 329 328 322 320 323 323 324 323 323 324 325 322
111 119 121 124 134 145 147 144 148 152 150 141 128 79 13 347 348 351 352 348 349 343 336 332 330 327 328 330 326 331 330 331 329 325 326 326 324 323 322 323 323 323 323
121 129 130 132 138 143 142 146 150 153 145 136 114 28 347 340 344 350 354 351 347 339 334 332 331 328 327 327 330 330 331 333 333 330 329 325 326 325 325 324 323 324 324
128 126 134 137 143 145 144 147 151 152 144 133 99 353 336 341 345 345 342 351 344 338 336 333 331 327 323 326 328 328 333 331 330 332 324 322 323 322 322 321 321 322 322